Back to catalog

ECHOSTAR 15

AliveCommunicationsGEO
NORAD 36792·PAYLOAD·🇺🇸 United States

Launched Jul 10, 2010 from Baikonur Cosmodrome

Loading…

TLE

FreshSource: Space-Track

Epoch: Sep 14, 2026, 13:14 UTC

1 36792U 10034A   26257.55165745 -.00000008  00000-0  00000-0 0  9994
2 36792   0.0360 283.1527 0002648 214.9228 295.2506  1.00271260 59219

Track ECHOSTAR 15 in real time with AllMySat

Download on the App Store